Regional Weather Roundup
Issued by NWS Little Rock, AR

Home | Current Version | Previous Version | Text Only | Print | Product List | Glossary Off
Versions: 1 2 3 4 5 6 7 8 9 10 11 12 13 14 15 16 17 18 19 20 21 22 23 24 25 26 27 28 29 30 31 32 33 34 35 36 37 38 39 40 41 42 43 44 45 46 47 48 49 50

815
ASUS44 KLZK 232305
RWRLZK

WEATHER ROUNDUP FOR ARKANSAS
NATIONAL WEATHER SERVICE LITTLE ROCK AR
600 PM CDT MON MAY 23 2016

NOTE: "FAIR" INDICATES FEW OR NO CLOUDS BELOW 12,000 FEET WITH NO
SIGNIFICANT WEATHER AND/OR OBSTRUCTIONS TO VISIBILITY.

ARZ001-003-010-029-240000-
NORTHWEST ARKANSAS

CITY           SKY/WX    TMP DP  RH WIND       PRES   REMARKS
FAYETTEVILLE   CLOUDY    66  64  93 N7        29.96S
FORT SMITH     CLOUDY    74  63  68 E6        29.92F
HARRISON       CLOUDY    71  59  65 SE8       29.96F
BENTONVILLE    CLOUDY    64  61  88 SE5       29.94F
ROGERS         LGT RAIN  64  63  94 SE6       29.94F
SILOAM SPGS    CLOUDY    64  57  77 SE6       29.94F
SPRINGDALE     CLOUDY    64  64 100 N7        29.98F FOG
$$

ARZ004-005-016-240000-
NORTH CENTRAL ARKANSAS

CITY           SKY/WX    TMP DP  RH WIND       PRES   REMARKS
BATESVILLE     CLOUDY    79  55  44 SW6       29.93R
FLIPPIN        CLOUDY   N/A N/A N/A SW5       29.93R
MTN HOME       LGT RAIN  73  60  63 SW3       29.95R
$$

ARZ040-041-240000-
WEST CENTRAL ARKANSAS

CITY           SKY/WX    TMP DP  RH WIND       PRES   REMARKS
MENA           SUNNY     79  64  61 CALM      29.94S
MOUNT IDA      MOSUNNY   80  64  58 VRB3      29.92R
$$

ARZ009-017-025-026-028-240000-
NORTHEAST ARKANSAS

CITY           SKY/WX    TMP DP  RH WIND       PRES   REMARKS
CORNING        LGT RAIN  82  48  30 S10       29.92F
JONESBORO      MOSUNNY   84  46  26 SW6       29.91F
NEWPORT        MOSUNNY   83  47  28 S10       29.92S
WALNUT RIDGE   MOSUNNY   82  46  28 SE12      29.91S
BLYTHEVILLE    SUNNY     84  47  27 S8        29.94F
$$

ARZ022-023-033-042-044-240000-
CENTRAL ARKANSAS

CITY           SKY/WX    TMP DP  RH WIND       PRES   REMARKS
LITTLE ROCK    CLOUDY    80  61  52 S6        29.92R
N LITTLE ROCK    N/A     78  61  55 S5        29.91R
JACKSONVILLE   CLOUDY    80  60  50 S2        29.92R
SEARCY         CLOUDY    79  59  50 SW3       29.93S
HOT SPRINGS    CLOUDY    80  61  52 S5        29.94R
RUSSELLVILLE   CLOUDY    79  61  53 CALM      29.94R
CLINTON        LGT RAIN  73  64  73 CALM      29.96R
$$

ARZ036-240000-
EAST ARKANSAS

CITY           SKY/WX    TMP DP  RH WIND       PRES   REMARKS
WEST MEMPHIS   MOSUNNY   82  50  32 SE10      29.91F
$$

ARZ050-053-066-070-073-240000-
SOUTHWEST ARKANSAS

CITY           SKY/WX    TMP DP  RH WIND       PRES   REMARKS
ARKADELPHIA    FAIR      84  69  60 CALM      29.92R HX  87
CAMDEN         MOSUNNY   86  57  37 S7        29.91R HX  85
TEXARKANA      MOSUNNY   81  64  56 S8        29.89S
EL DORADO      SUNNY     82  62  50 SE6       29.92R
DE QUEEN       SUNNY     81  66  60 E6        29.88S
$$

ARZ056-057-069-240000-
SOUTHEAST ARKANSAS

CITY           SKY/WX    TMP DP  RH WIND       PRES   REMARKS
PINE BLUFF     CLOUDY    80  58  46 S9        29.92R
STUTTGART      PTSUNNY   84  52  32 S10       29.92S
MONTICELLO     CLOUDY    83  58  42 S3        29.91F

$$






USA.gov is the U.S. government's official web portal to all federal, state and local government web resources and services.